CAPE
nan nan nan nan nan nan nan nan nan nan nan nan nan nan nan nan nan nan nan nan nan nan nan nan nan nan nan nan nan nan 1 3 7 7 13 20 28 28 34 39 39 46 46 44 44 42 37 36 36 38 39 44 52 52 62 63 63 58 58 57 57 55 57 62 62 68 78 91 109 109 127 127 119 119 109 105 103 103 101 98 98 96 96 96 96 96
nan nan nan nan nan nan nan nan nan nan nan nan nan nan nan nan nan nan nan nan nan nan nan nan nan nan nan nan nan nan 0 1 3 3 11 24 34 34 40 47 47 54 50 44 44 39 34 30 30 32 35 40 47 47 51 53 53 51 51 51 51 51 51 59 59 68 81 94 103 103 111 104 99 99 94 90 88 88 83 84 84 83 80 81 81 81
nan nan nan nan nan nan nan nan nan nan nan nan nan nan nan nan nan nan nan nan nan nan nan nan nan nan nan nan nan nan nan 0 1 1 9 23 35 35 43 50 50 55 50 44 44 35 30 28 28 27 31 36 43 43 46 48 48 47 46 46 46 48 49 57 57 70 80 89 93 93 89 84 81 81 79 79 73 73 69 70 70 70 67 66 66 67
nan nan nan nan nan nan nan nan nan nan nan nan nan nan nan nan nan nan nan nan nan nan nan nan nan nan nan nan nan nan nan nan 0 0 4 15 27 27 38 46 46 48 45 38 38 33 26 26 26 27 31 37 40 40 45 45 45 46 47 45 45 45 52 61 61 72 74 77 73 73 68 62 59 59 61 59 56 56 53 59 59 63 64 62 62 62
nan nan nan nan nan nan nan nan nan nan nan nan nan nan nan nan nan nan nan nan nan nan nan nan nan nan nan nan nan nan nan nan nan nan 1 8 19 19 27 37 37 41 39 35 35 30 28 27 27 29 33 37 41 41 42 44 44 48 45 45 45 51 62 73 73 73 67 62 55 55 52 46 46 46 46 46 49 49 51 55 55 57 60 60 60 60
nan nan nan nan nan nan nan nan nan nan nan nan nan nan nan nan nan nan nan nan nan nan nan nan nan nan nan nan nan nan nan nan nan nan 0 2 10 10 18 28 28 34 37 35 35 33 30 32 32 31 36 38 40 40 43 47 47 48 49 48 48 61 72 71 71 64 56 51 47 47 44 41 42 42 43 43 44 44 44 47 47 55 54 56 56 56
nan nan nan nan nan nan nan nan nan nan nan nan nan nan nan nan nan nan nan nan nan nan nan nan nan nan nan nan nan nan nan nan nan nan nan 0 4 4 14 24 24 31 37 36 36 34 34 35 35 36 39 40 43 43 48 53 53 51 50 57 57 67 71 62 62 53 49 43 41 41 38 38 39 39 38 38 38 38 35 37 37 47 48 50 50 54
nan nan nan nan nan nan nan nan nan nan nan nan nan nan nan nan nan nan nan nan nan nan nan nan nan nan nan nan nan nan nan nan nan nan nan nan nan nan 0 12 12 24 36 42 42 43 43 42 42 42 43 44 52 52 59 64 64 61 62 58 58 55 54 50 50 48 43 38 34 34 32 30 30 30 29 28 29 29 30 31 31 34 38 43 43 49
nan nan nan nan nan nan nan nan nan nan nan nan nan nan nan nan nan nan nan nan nan nan nan nan nan nan nan nan nan nan nan nan nan nan nan nan nan nan nan nan nan 4 22 30 30 38 41 42 42 47 51 54 60 60 64 65 65 65 59 54 54 51 45 47 47 44 40 34 32 32 30 28 27 27 27 26 28 28 26 26 26 29 35 41 41 49
nan nan nan nan nan nan nan nan nan nan nan nan nan nan nan nan nan nan nan nan nan nan nan nan nan nan nan nan nan nan nan nan nan nan nan nan nan nan nan nan nan nan 3 13 13 27 35 41 41 50 58 65 67 67 67 65 65 60 56 49 49 45 45 42 42 39 35 32 29 29 26 24 24 24 25 26 25 25 26 25 25 28 33 39 39 46
nan nan nan nan nan nan nan nan nan nan nan nan nan nan nan nan nan nan nan nan nan nan nan nan nan nan nan nan nan nan nan nan nan nan nan nan 0 0 1 0 0 1 3 6 6 10 20 35 35 51 60 67 67 67 59 58 58 56 51 47 47 42 39 36 36 33 33 29 24 24 23 21 21 21 23 25 25 25 25 27 27 29 32 38 38 42
nan nan nan nan nan nan nan nan nan nan nan nan nan nan nan nan nan nan nan nan nan nan nan nan nan nan nan nan nan nan nan nan nan nan nan nan nan nan nan nan nan 1 2 4 4 7 12 25 25 40 45 49 55 55 51 44 44 49 44 41 41 37 33 31 31 27 24 21 19 19 19 21 23 23 24 26 27 27 27 29 29 33 35 39 39 41
nan nan nan nan nan nan nan nan nan nan nan nan nan nan nan nan nan nan nan nan nan nan nan nan nan nan nan nan nan nan nan nan nan nan nan nan nan nan nan nan nan nan nan nan nan nan 2 13 13 26 37 39 45 45 49 40 40 40 37 33 33 29 29 24 24 19 17 15 17 17 19 21 24 24 26 28 29 29 27 30 30 34 36 39 39 42
nan nan nan nan nan nan nan nan nan nan nan nan nan nan nan nan nan nan nan nan nan nan nan nan nan nan nan nan nan nan nan nan nan nan nan nan nan nan nan nan nan nan nan nan nan nan nan 1 1 0 23 30 31 31 35 35 35 32 29 26 26 26 22 17 17 14 13 14 16 16 19 22 24 24 26 29 29 29 28 29 29 31 34 39 39 42
nan nan nan nan nan nan nan nan nan nan nan nan nan nan nan nan nan nan nan nan nan nan nan nan nan nan nan nan nan nan nan nan nan nan nan nan nan nan nan nan nan nan nan nan nan nan nan nan nan nan nan nan 2 2 7 13 13 19 18 18 18 17 13 11 11 10 13 15 20 20 21 23 23 23 24 29 31 31 29 29 29 30 33 37 37 42
nan nan nan nan nan nan nan nan nan nan nan nan nan nan nan nan nan nan nan nan nan nan nan nan nan nan nan nan nan nan nan nan nan nan nan nan nan nan nan nan nan nan nan nan nan nan nan nan nan nan nan nan nan nan 0 4 4 5 6 7 7 7 8 10 10 12 16 18 21 21 23 22 22 22 23 26 31 31 30 28 28 30 33 36 36 40
nan nan nan nan nan nan nan nan nan nan nan nan nan nan nan nan nan nan nan nan nan nan nan nan nan nan nan nan nan nan nan nan nan nan nan nan nan nan nan nan nan nan nan nan nan nan nan nan nan nan nan nan nan nan nan nan nan 0 1 2 2 5 9 13 13 17 19 22 23 23 23 21 21 21 22 22 28 28 31 30 30 30 31 35 35 41
nan nan nan nan nan nan nan nan nan nan nan nan nan nan nan nan nan nan nan nan nan nan nan nan nan nan nan nan nan nan nan nan nan nan nan nan nan nan nan nan nan nan nan nan nan nan nan nan nan nan nan nan nan nan nan nan nan 0 1 4 4 9 13 17 17 20 22 23 22 22 22 19 20 20 20 22 25 25 29 31 31 31 32 37 37 40
nan nan nan nan nan nan nan nan nan nan nan nan nan nan nan nan nan nan nan nan nan nan nan nan nan nan nan nan nan nan nan nan nan nan nan nan nan nan nan nan nan nan nan nan nan nan nan nan nan nan nan nan nan nan nan nan nan 1 4 9 9 14 19 22 22 24 24 24 23 23 23 21 19 19 20 22 25 25 29 32 32 32 33 36 36 41
nan nan nan nan nan nan nan nan nan nan nan nan nan nan nan nan nan nan nan nan nan nan nan nan nan nan nan nan nan nan nan nan nan nan nan nan nan nan nan nan nan nan nan nan nan nan nan nan nan nan nan nan nan nan nan 1 1 5 9 15 15 20 23 24 24 23 23 24 23 23 23 20 19 19 20 22 25 25 28 32 32 33 34 39 39 42
nan nan nan nan nan nan nan nan nan nan nan nan nan nan nan nan nan nan nan nan nan nan nan nan nan nan nan nan nan nan nan nan nan nan nan nan nan nan nan nan nan nan nan nan nan nan nan nan nan nan nan nan nan nan 1 5 5 10 15 19 19 24 23 23 23 23 22 23 23 23 22 22 20 20 20 22 24 24 28 32 32 32 35 39 39 42
nan nan nan nan nan nan nan nan nan nan nan nan nan nan nan nan nan nan nan nan nan nan nan nan nan nan nan nan nan nan nan nan nan nan nan nan nan nan nan nan nan nan nan nan nan nan nan nan nan nan nan nan 0 0 5 9 9 14 19 23 23 24 22 21 21 20 22 24 23 23 23 22 22 22 22 23 24 24 29 33 33 34 37 42 42 45
nan nan nan nan nan nan nan nan nan nan nan nan nan nan nan nan nan nan nan nan nan nan nan nan nan nan nan nan nan nan nan nan nan nan nan nan nan nan nan nan nan nan nan nan nan nan nan nan nan nan nan nan 1 1 7 12 12 18 21 22 22 22 19 20 20 19 22 22 22 22 23 23 23 23 23 23 25 25 32 36 36 39 40 42 42 45
nan nan nan nan nan nan nan nan nan nan nan nan nan nan nan nan nan nan nan nan nan nan nan nan nan nan nan nan nan nan nan nan nan nan nan nan nan nan nan nan nan nan nan nan nan nan nan nan nan nan nan nan 3 3 9 15 15 20 21 21 21 19 19 19 19 20 22 22 23 23 23 22 22 22 23 22 25 25 33 38 38 39 40 43 43 44
nan nan nan nan nan nan nan nan nan nan nan nan nan nan nan nan nan nan nan nan nan nan nan nan nan nan nan nan nan nan nan nan nan nan nan nan nan nan nan nan nan nan nan nan nan nan nan nan nan nan nan nan 2 2 9 14 14 19 20 20 20 19 19 20 20 19 20 21 23 23 23 23 23 23 23 23 24 24 31 39 39 40 40 42 42 44
nan nan nan nan nan 2 3 2 3 3 nan nan nan nan nan nan nan nan nan nan nan nan nan nan nan nan nan nan nan nan nan nan nan nan nan nan nan nan nan nan nan nan nan nan nan nan nan nan nan nan nan nan nan nan 4 12 12 16 17 19 19 18 18 20 20 19 19 20 21 21 23 23 22 22 21 20 22 22 27 32 32 38 39 37 37 40
64 28 19 18 18 23 27 29 33 33 35 11 nan nan nan nan nan nan nan nan nan nan nan nan nan nan nan nan nan nan nan nan nan nan nan nan nan nan nan nan nan nan nan nan nan nan nan nan nan nan nan nan nan nan 0 4 4 10 14 14 14 17 17 17 17 17 18 18 21 21 22 22 20 20 19 17 19 19 23 29 29 34 37 35 35 40
92 102 73 37 37 32 32 36 43 43 51 51 39 39 1 nan nan nan nan nan nan nan nan nan nan nan nan nan nan nan nan nan nan nan nan nan nan nan nan nan nan nan nan nan nan nan nan nan nan nan nan nan nan nan nan 0 0 4 8 11 11 14 15 16 16 16 16 18 20 20 21 21 19 19 16 15 16 16 22 27 27 34 35 25 25 5
63 81 105 97 97 74 52 50 56 56 64 71 72 72 18 nan nan nan nan nan nan nan nan nan nan nan nan nan nan nan nan nan nan nan nan nan nan nan nan nan nan nan nan nan nan nan nan nan nan nan nan nan nan nan nan nan nan 1 5 8 8 11 13 13 13 14 15 16 17 17 17 16 15 15 14 14 17 17 21 24 24 30 27 14 14 1
15 37 56 83 83 100 92 43 65 65 83 84 79 79 33 nan nan nan nan nan nan nan nan nan nan nan nan nan nan nan nan nan nan nan nan nan nan nan nan nan nan nan nan nan nan nan nan nan nan nan nan nan nan nan nan nan nan nan nan 3 3 4 7 7 7 9 11 12 13 13 14 14 13 13 13 14 17 17 19 22 22 19 7 1 1 0
nan nan nan 2 2 5 2 1 35 35 94 112 95 95 50 nan nan nan nan nan nan nan nan nan nan nan nan nan nan nan nan nan nan nan nan nan nan nan nan nan nan nan nan nan nan nan nan nan nan nan nan nan nan nan nan nan nan nan nan nan nan nan 0 1 1 3 6 8 10 10 10 11 13 13 13 14 15 15 16 20 20 14 1 nan nan nan
nan nan nan nan nan nan nan nan nan nan nan nan 9 9 43 8 nan nan nan nan nan nan nan nan nan nan nan nan nan nan nan nan nan nan nan nan nan nan nan nan nan nan nan nan nan nan nan nan nan nan nan nan nan nan nan nan nan nan nan nan nan nan nan nan nan nan nan 2 5 5 6 8 9 9 9 10 11 11 12 15 15 14 1 nan nan nan
nan nan nan nan nan nan nan nan nan nan nan nan nan nan nan 10 2 2 nan nan nan nan nan nan nan nan nan nan nan nan nan nan nan nan nan nan nan nan nan nan nan nan nan nan nan nan nan nan nan nan nan nan nan nan nan nan nan nan nan nan nan nan nan nan nan nan nan nan nan nan 3 3 4 4 5 6 7 7 9 11 11 13 12 nan nan nan
nan nan nan nan nan nan nan nan nan nan nan nan nan nan nan nan nan nan nan nan nan nan nan nan nan nan nan nan nan nan nan nan nan nan 2 nan nan nan nan nan nan nan nan nan nan nan nan nan nan nan nan nan nan nan nan nan nan nan nan nan nan nan nan nan nan nan nan nan nan nan nan nan 0 0 0 2 3 3 5 9 9 14 18 6 6 2
nan nan nan nan nan nan nan nan nan nan nan nan nan nan nan nan nan nan nan nan nan nan nan nan nan nan nan nan nan nan nan nan nan nan 3 nan nan nan nan nan nan nan nan nan nan nan nan nan nan nan nan nan nan nan nan nan nan nan nan nan nan nan nan nan nan nan nan nan nan nan nan nan nan nan nan nan 1 1 5 11 11 17 22 28 28 17
nan nan nan nan nan nan nan nan nan nan nan nan nan nan nan nan nan nan nan nan nan nan nan nan nan nan nan nan nan nan nan nan nan nan nan nan nan nan nan nan nan nan nan nan nan nan nan nan nan nan nan nan nan nan nan nan nan nan nan nan nan nan nan nan nan nan nan nan nan nan nan nan nan nan nan 0 3 3 8 13 13 18 21 26 26 24
nan nan nan nan nan nan nan nan nan nan nan nan nan nan nan nan nan nan nan nan nan nan nan nan nan nan nan nan nan nan nan nan nan nan nan nan nan nan nan nan nan nan nan nan nan nan nan nan nan nan nan nan nan nan nan nan nan nan nan nan nan nan nan nan nan nan nan nan nan nan nan nan nan nan nan 1 3 3 8 13 13 13 16 16 16 18
nan nan nan nan nan nan nan nan nan nan nan nan nan nan nan nan nan nan nan nan nan nan nan nan nan nan 1 nan nan nan nan nan nan nan nan nan nan nan nan nan nan nan nan nan nan nan nan nan nan nan nan nan nan nan nan nan nan nan nan nan nan nan nan nan nan nan nan nan nan nan nan nan nan nan nan nan nan nan nan nan nan nan 6 5 5 12
nan nan nan nan nan nan nan nan nan nan nan nan nan nan nan nan nan nan nan nan nan nan nan nan nan nan nan nan 0 0 nan nan nan nan nan nan nan nan nan nan nan nan nan nan nan nan nan nan nan nan nan nan nan nan nan nan nan nan nan nan nan nan nan nan nan nan nan nan nan nan nan nan nan nan nan nan nan nan nan nan nan nan nan nan nan nan
nan nan nan nan nan nan nan nan nan nan nan nan nan nan nan nan nan nan nan nan nan nan nan nan nan nan nan 3 4 4 4 nan nan nan nan nan nan nan nan nan nan nan nan nan nan nan nan nan nan nan nan nan nan nan nan nan nan nan nan nan nan nan nan nan nan nan nan nan nan nan nan nan nan nan nan nan nan nan nan nan nan nan nan nan nan nan
nan nan nan nan nan nan nan nan nan nan nan nan nan nan nan nan nan nan nan nan nan nan nan nan nan nan nan nan nan nan nan nan nan nan nan nan nan nan nan nan nan nan nan nan nan nan nan nan nan nan nan nan nan nan nan nan nan nan nan nan nan nan nan nan nan nan nan nan nan nan nan nan nan nan nan nan nan nan nan nan nan nan nan nan nan nan
nan nan nan nan nan nan nan nan nan nan nan nan nan nan nan nan nan nan nan nan nan nan nan nan nan nan nan nan nan nan nan nan nan nan nan nan nan nan nan nan nan nan nan nan nan nan nan nan nan nan nan nan nan nan nan nan nan nan nan nan nan nan nan nan nan nan nan nan nan nan nan nan nan nan nan nan nan nan nan nan nan nan nan nan nan nan
nan nan nan nan nan nan nan nan nan nan nan nan nan nan nan nan nan nan nan nan nan nan nan nan nan nan nan nan nan nan nan nan nan nan nan nan nan nan nan nan nan nan nan nan nan nan nan nan nan nan nan nan nan nan nan nan nan nan nan nan nan nan nan nan nan nan nan nan nan nan nan nan nan nan nan nan nan nan nan nan nan 0 0 nan nan nan
nan nan nan nan nan nan nan nan nan nan nan nan nan nan nan nan nan nan nan nan nan nan nan nan nan nan nan nan nan nan nan nan nan nan nan nan nan nan nan nan nan nan nan nan nan nan nan nan nan nan nan nan nan nan nan nan nan nan nan nan nan nan nan nan nan nan nan nan nan nan nan nan nan nan nan nan nan nan nan nan nan nan nan nan nan nan
nan nan nan nan nan nan nan nan nan nan nan nan nan nan nan nan nan nan nan nan nan nan nan nan nan nan nan nan nan nan nan nan nan nan nan nan 1 1 nan nan nan nan nan nan nan nan nan nan nan nan nan nan nan nan nan nan nan nan nan nan nan nan nan nan nan nan nan nan nan nan nan nan nan nan nan nan nan nan nan nan nan nan nan nan nan nan
nan nan nan nan nan nan nan nan nan nan nan nan nan nan nan nan nan nan nan nan nan nan nan nan nan nan nan nan nan nan nan nan nan nan nan nan nan nan nan nan nan nan nan nan nan nan nan nan nan nan nan nan nan nan nan nan nan nan nan nan nan nan nan nan nan nan nan nan nan nan nan nan nan nan nan nan nan nan nan nan nan nan nan nan nan nan
nan nan nan nan nan nan nan nan nan nan nan nan nan nan nan nan nan nan nan nan nan nan nan nan nan nan nan nan nan nan nan nan nan nan nan nan nan nan nan nan nan nan nan nan nan nan nan nan nan nan nan nan nan nan nan nan nan nan nan nan nan nan nan nan nan nan nan nan nan nan nan nan nan nan nan nan nan nan nan nan nan nan nan nan nan nan
nan nan nan nan nan nan nan nan nan nan nan nan nan nan nan nan nan nan nan nan nan nan nan nan nan nan nan nan nan nan nan nan nan nan nan nan nan nan nan nan nan nan nan nan nan nan nan nan nan nan nan nan nan nan nan nan nan nan nan nan nan nan nan nan nan nan nan nan nan nan nan nan nan nan nan nan nan nan nan nan nan nan nan nan nan nan
nan nan nan nan nan nan nan nan nan nan nan nan nan nan nan nan 6 6 nan nan nan nan nan nan nan nan nan nan nan nan nan nan nan nan nan nan nan nan nan nan nan nan nan nan nan nan nan nan nan nan nan nan nan nan nan nan nan nan nan nan nan nan nan nan nan nan nan nan nan nan nan nan nan nan nan nan nan nan nan nan nan nan nan nan nan nan
nan nan nan nan nan nan nan nan nan nan nan nan nan nan nan nan nan nan nan nan nan nan nan nan nan nan nan nan nan nan nan nan nan nan nan nan nan nan nan nan nan nan nan nan nan nan nan nan nan 0 2 nan nan nan nan nan nan nan nan nan nan nan nan nan nan nan nan nan nan nan nan nan nan nan nan nan nan nan nan nan nan nan nan nan nan nan
nan nan nan nan nan nan nan nan nan nan nan nan nan nan nan nan nan nan nan nan nan nan nan nan nan nan nan nan nan nan nan nan nan nan nan nan nan nan nan nan nan nan nan nan nan nan nan nan nan nan 8 24 3 3 nan nan nan nan nan nan nan nan nan nan nan nan nan nan nan nan nan nan nan nan nan nan nan nan nan nan nan nan nan nan nan nan
CIN
nan nan nan nan nan nan nan nan nan nan nan nan nan nan nan nan nan nan nan nan nan nan nan nan nan nan nan nan nan nan 0 0 0 0 0 0 0 0 0 0 0 0 0 0 0 0 0 0 0 0 0 0 0 0 0 0 0 0 0 0 0 0 0 0 0 0 0 0 0 0 0 0 0 0 0 0 0 0 0 0 0 0 0 0 0 0
nan nan nan nan nan nan nan nan nan nan nan nan nan nan nan nan nan nan nan nan nan nan nan nan nan nan nan nan nan nan 0 0 0 0 0 0 0 0 0 0 0 0 0 0 0 0 0 0 0 0 0 0 0 0 0 0 0 0 0 0 0 0 0 0 0 0 0 0 0 0 0 0 0 0 0 0 0 0 0 0 0 0 0 0 0 0
nan nan nan nan nan nan nan nan nan nan nan nan nan nan nan nan nan nan nan nan nan nan nan nan nan nan nan nan nan nan nan 0 0 0 0 0 0 0 0 0 0 0 0 0 0 0 0 0 0 0 0 0 0 0 0 0 0 0 0 0 0 0 0 0 0 0 0 0 0 0 0 0 0 0 0 0 0 0 0 0 0 0 0 0 0 0
nan nan nan nan nan nan nan nan nan nan nan nan nan nan nan nan nan nan nan nan nan nan nan nan nan nan nan nan nan nan nan nan 0 0 0 0 0 0 0 0 0 0 0 0 0 0 0 0 0 0 0 0 0 0 0 0 0 0 0 0 0 0 0 0 0 0 0 0 0 0 0 0 0 0 0 0 0 0 0 0 0 0 0 0 0 0
nan nan nan nan nan nan nan nan nan nan nan nan nan nan nan nan nan nan nan nan nan nan nan nan nan nan nan nan nan nan nan nan nan nan 0 0 0 0 0 0 0 0 0 0 0 0 0 0 0 0 0 0 0 0 0 0 0 0 0 0 0 0 0 0 0 0 0 0 0 0 0 0 0 0 0 0 0 0 0 0 0 0 0 0 0 0
nan nan nan nan nan nan nan nan nan nan nan nan nan nan nan nan nan nan nan nan nan nan nan nan nan nan nan nan nan nan nan nan nan nan 0 0 0 0 0 0 0 0 0 0 0 0 0 0 0 0 0 0 0 0 0 0 0 0 0 0 0 0 0 0 0 0 0 0 0 0 0 0 0 0 0 0 0 0 0 0 0 0 0 0 0 0
nan nan nan nan nan nan nan nan nan nan nan nan nan nan nan nan nan nan nan nan nan nan nan nan nan nan nan nan nan nan nan nan nan nan nan 0 0 0 0 0 0 0 0 0 0 0 0 0 0 0 0 0 0 0 0 0 0 0 0 0 0 0 0 0 0 0 0 0 0 0 0 0 0 0 0 0 0 0 0 0 0 0 0 0 0 0
nan nan nan nan nan nan nan nan nan nan nan nan nan nan nan nan nan nan nan nan nan nan nan nan nan nan nan nan nan nan nan nan nan nan nan nan nan nan 0 0 0 0 0 0 0 0 0 0 0 0 0 0 0 0 0 0 0 0 0 0 0 0 0 0 0 0 0 0 0 0 0 0 0 0 0 0 0 0 0 0 0 0 0 0 0 0
nan nan nan nan nan nan nan nan nan nan nan nan nan nan nan nan nan nan nan nan nan nan nan nan nan nan nan nan nan nan nan nan nan nan nan nan nan nan nan nan nan 0 0 0 0 0 0 0 0 0 0 0 0 0 0 0 0 0 0 0 0 0 0 0 0 0 0 0 0 0 0 0 0 0 0 0 0 0 0 0 0 0 0 0 0 0
nan nan nan nan nan nan nan nan nan nan nan nan nan nan nan nan nan nan nan nan nan nan nan nan nan nan nan nan nan nan nan nan nan nan nan nan nan nan nan nan nan nan 0 0 0 0 0 0 0 0 0 0 0 0 0 0 0 0 0 0 0 0 0 0 0 0 0 0 0 0 0 0 0 0 0 0 0 0 0 0 0 0 0 0 0 0
nan nan nan nan nan nan nan nan nan nan nan nan nan nan nan nan nan nan nan nan nan nan nan nan nan nan nan nan nan nan nan nan nan nan nan nan 0 0 0 0 0 0 0 0 0 0 0 0 0 0 0 0 0 0 0 0 0 0 0 0 0 0 0 0 0 0 0 0 0 0 0 0 0 0 0 0 0 0 0 0 0 0 0 0 0 0
nan nan nan nan nan nan nan nan nan nan nan nan nan nan nan nan nan nan nan nan nan nan nan nan nan nan nan nan nan nan nan nan nan nan nan nan nan nan nan nan nan 0 0 0 0 0 0 0 0 0 0 0 0 0 0 0 0 0 0 0 0 0 0 0 0 0 0 0 0 0 0 0 0 0 0 0 0 0 0 0 0 0 0 0 0 0
nan nan nan nan nan nan nan nan nan nan nan nan nan nan nan nan nan nan nan nan nan nan nan nan nan nan nan nan nan nan nan nan nan nan nan nan nan nan nan nan nan nan nan nan nan nan 0 0 0 0 0 0 0 0 0 0 0 0 0 0 0 0 0 0 0 0 0 0 0 0 0 0 0 0 0 0 0 0 0 0 0 0 0 0 0 0
nan nan nan nan nan nan nan nan nan nan nan nan nan nan nan nan nan nan nan nan nan nan nan nan nan nan nan nan nan nan nan nan nan nan nan nan nan nan nan nan nan nan nan nan nan nan nan 0 0 -7 0 0 0 0 0 0 0 0 0 0 0 0 0 0 0 0 0 0 0 0 0 0 0 0 0 0 0 0 0 0 0 0 0 0 0 0
nan nan nan nan nan nan nan nan nan nan nan nan nan nan nan nan nan nan nan nan nan nan nan nan nan nan nan nan nan nan nan nan nan nan nan nan nan nan nan nan nan nan nan nan nan nan nan nan nan nan nan nan -19 -19 -6 0 0 0 0 0 0 0 0 0 0 0 0 0 0 0 0 0 0 0 0 0 0 0 0 0 0 0 0 0 0 0
nan nan nan nan nan nan nan nan nan nan nan nan nan nan nan nan nan nan nan nan nan nan nan nan nan nan nan nan nan nan nan nan nan nan nan nan nan nan nan nan nan nan nan nan nan nan nan nan nan nan nan nan nan nan -0 0 0 0 0 0 0 0 0 0 0 0 0 0 0 0 0 0 0 0 0 0 0 0 0 0 0 0 0 0 0 0
nan nan nan nan nan nan nan nan nan nan nan nan nan nan nan nan nan nan nan nan nan nan nan nan nan nan nan nan nan nan nan nan nan nan nan nan nan nan nan nan nan nan nan nan nan nan nan nan nan nan nan nan nan nan nan nan nan 0 0 0 0 0 0 0 0 0 0 0 0 0 0 0 0 0 0 0 0 0 0 0 0 0 0 0 0 0
nan nan nan nan nan nan nan nan nan nan nan nan nan nan nan nan nan nan nan nan nan nan nan nan nan nan nan nan nan nan nan nan nan nan nan nan nan nan nan nan nan nan nan nan nan nan nan nan nan nan nan nan nan nan nan nan nan 0 0 0 0 0 0 0 0 0 0 0 0 0 0 0 0 0 0 0 0 0 0 0 0 0 0 0 0 0
nan nan nan nan nan nan nan nan nan nan nan nan nan nan nan nan nan nan nan nan nan nan nan nan nan nan nan nan nan nan nan nan nan nan nan nan nan nan nan nan nan nan nan nan nan nan nan nan nan nan nan nan nan nan nan nan nan 0 0 0 0 0 0 0 0 0 0 0 0 0 0 0 0 0 0 0 0 0 0 0 0 0 0 0 0 0
nan nan nan nan nan nan nan nan nan nan nan nan nan nan nan nan nan nan nan nan nan nan nan nan nan nan nan nan nan nan nan nan nan nan nan nan nan nan nan nan nan nan nan nan nan nan nan nan nan nan nan nan nan nan nan 0 0 0 0 0 0 0 0 0 0 0 0 0 0 0 0 0 0 0 0 0 0 0 0 0 0 0 0 0 0 0
nan nan nan nan nan nan nan nan nan nan nan nan nan nan nan nan nan nan nan nan nan nan nan nan nan nan nan nan nan nan nan nan nan nan nan nan nan nan nan nan nan nan nan nan nan nan nan nan nan nan nan nan nan nan 0 0 0 0 0 0 0 0 0 0 0 0 0 0 0 0 0 0 0 0 0 0 0 0 0 0 0 0 0 0 0 0
nan nan nan nan nan nan nan nan nan nan nan nan nan nan nan nan nan nan nan nan nan nan nan nan nan nan nan nan nan nan nan nan nan nan nan nan nan nan nan nan nan nan nan nan nan nan nan nan nan nan nan nan 0 0 0 0 0 0 0 0 0 0 0 0 0 0 0 0 0 0 0 0 0 0 0 0 0 0 0 0 0 0 0 0 0 0
nan nan nan nan nan nan nan nan nan nan nan nan nan nan nan nan nan nan nan nan nan nan nan nan nan nan nan nan nan nan nan nan nan nan nan nan nan nan nan nan nan nan nan nan nan nan nan nan nan nan nan nan 0 0 0 0 0 0 0 0 0 0 0 0 0 0 0 0 0 0 0 0 0 0 0 0 0 0 0 0 0 0 0 0 0 0
nan nan nan nan nan nan nan nan nan nan nan nan nan nan nan nan nan nan nan nan nan nan nan nan nan nan nan nan nan nan nan nan nan nan nan nan nan nan nan nan nan nan nan nan nan nan nan nan nan nan nan nan 0 0 0 0 0 0 0 0 0 0 0 0 0 0 0 0 0 0 0 0 0 0 0 0 0 0 0 0 0 0 0 0 0 0
nan nan nan nan nan nan nan nan nan nan nan nan nan nan nan nan nan nan nan nan nan nan nan nan nan nan nan nan nan nan nan nan nan nan nan nan nan nan nan nan nan nan nan nan nan nan nan nan nan nan nan nan 0 0 0 0 0 0 0 0 0 0 0 0 0 0 0 0 0 0 0 0 0 0 0 0 0 0 0 0 0 0 0 0 0 0
nan nan nan nan nan -0 0 0 0 0 nan nan nan nan nan nan nan nan nan nan nan nan nan nan nan nan nan nan nan nan nan nan nan nan nan nan nan nan nan nan nan nan nan nan nan nan nan nan nan nan nan nan nan nan 0 0 0 0 0 0 0 0 0 0 0 0 0 0 0 0 0 0 0 0 0 0 0 0 0 0 0 0 0 0 0 0
0 0 0 0 0 0 0 0 0 0 0 0 nan nan nan nan nan nan nan nan nan nan nan nan nan nan nan nan nan nan nan nan nan nan nan nan nan nan nan nan nan nan nan nan nan nan nan nan nan nan nan nan nan nan -0 0 0 0 0 0 0 0 0 0 0 0 0 0 0 0 0 0 0 0 0 0 0 0 0 0 0 0 0 0 0 0
0 0 0 0 0 0 0 0 0 0 0 0 0 0 -0 nan nan nan nan nan nan nan nan nan nan nan nan nan nan nan nan nan nan nan nan nan nan nan nan nan nan nan nan nan nan nan nan nan nan nan nan nan nan nan nan 0 0 0 0 0 0 0 0 0 0 0 0 0 0 0 0 0 0 0 0 0 0 0 0 0 0 0 0 0 0 -16
0 0 0 0 0 0 0 0 0 0 0 0 0 0 0 nan nan nan nan nan nan nan nan nan nan nan nan nan nan nan nan nan nan nan nan nan nan nan nan nan nan nan nan nan nan nan nan nan nan nan nan nan nan nan nan nan nan 0 0 0 0 0 0 0 0 0 0 0 0 0 0 0 0 0 0 0 0 0 0 0 0 0 0 -1 -1 -17
0 0 0 0 0 0 0 0 0 0 0 0 0 0 0 nan nan nan nan nan nan nan nan nan nan nan nan nan nan nan nan nan nan nan nan nan nan nan nan nan nan nan nan nan nan nan nan nan nan nan nan nan nan nan nan nan nan nan nan 0 0 0 0 0 0 0 0 0 0 0 0 0 0 0 0 0 0 0 0 0 0 0 -4 -19 -19 -19
nan nan nan -2 -2 -1 -0 -0 0 0 0 0 0 0 0 nan nan nan nan nan nan nan nan nan nan nan nan nan nan nan nan nan nan nan nan nan nan nan nan nan nan nan nan nan nan nan nan nan nan nan nan nan nan nan nan nan nan nan nan nan nan nan 0 0 0 0 0 0 0 0 0 0 0 0 0 0 0 0 0 0 0 0 -17 nan nan nan
nan nan nan nan nan nan nan nan nan nan nan nan -1 -1 -0 -0 nan nan nan nan nan nan nan nan nan nan nan nan nan nan nan nan nan nan nan nan nan nan nan nan nan nan nan nan nan nan nan nan nan nan nan nan nan nan nan nan nan nan nan nan nan nan nan nan nan nan nan 0 0 0 0 0 0 0 0 0 0 0 0 0 0 0 -10 nan nan nan
nan nan nan nan nan nan nan nan nan nan nan nan nan nan nan -1 -0 -0 nan nan nan nan nan nan nan nan nan nan nan nan nan nan nan nan nan nan nan nan nan nan nan nan nan nan nan nan nan nan nan nan nan nan nan nan nan nan nan nan nan nan nan nan nan nan nan nan nan nan nan nan 0 0 0 0 0 0 0 0 0 0 0 0 0 nan nan nan
nan nan nan nan nan nan nan nan nan nan nan nan nan nan nan nan nan nan nan nan nan nan nan nan nan nan nan nan nan nan nan nan nan nan -5 nan nan nan nan nan nan nan nan nan nan nan nan nan nan nan nan nan nan nan nan nan nan nan nan nan nan nan nan nan nan nan nan nan nan nan nan nan 0 0 0 0 0 0 0 0 0 0 0 0 0 -10
nan nan nan nan nan nan nan nan nan nan nan nan nan nan nan nan nan nan nan nan nan nan nan nan nan nan nan nan nan nan nan nan nan nan -4 nan nan nan nan nan nan nan nan nan nan nan nan nan nan nan nan nan nan nan nan nan nan nan nan nan nan nan nan nan nan nan nan nan nan nan nan nan nan nan nan nan 0 0 0 0 0 0 0 0 0 0
nan nan nan nan nan nan nan nan nan nan nan nan nan nan nan nan nan nan nan nan nan nan nan nan nan nan nan nan nan nan nan nan nan nan nan nan nan nan nan nan nan nan nan nan nan nan nan nan nan nan nan nan nan nan nan nan nan nan nan nan nan nan nan nan nan nan nan nan nan nan nan nan nan nan nan 0 0 0 0 0 0 0 0 0 0 0
nan nan nan nan nan nan nan nan nan nan nan nan nan nan nan nan nan nan nan nan nan nan nan nan nan nan nan nan nan nan nan nan nan nan nan nan nan nan nan nan nan nan nan nan nan nan nan nan nan nan nan nan nan nan nan nan nan nan nan nan nan nan nan nan nan nan nan nan nan nan nan nan nan nan nan 0 0 0 0 0 0 0 0 0 0 0
nan nan nan nan nan nan nan nan nan nan nan nan nan nan nan nan nan nan nan nan nan nan nan nan nan nan -5 nan nan nan nan nan nan nan nan nan nan nan nan nan nan nan nan nan nan nan nan nan nan nan nan nan nan nan nan nan nan nan nan nan nan nan nan nan nan nan nan nan nan nan nan nan nan nan nan nan nan nan nan nan nan nan 0 0 0 0
nan nan nan nan nan nan nan nan nan nan nan nan nan nan nan nan nan nan nan nan nan nan nan nan nan nan nan nan -6 -6 nan nan nan nan nan nan nan nan nan nan nan nan nan nan nan nan nan nan nan nan nan nan nan nan nan nan nan nan nan nan nan nan nan nan nan nan nan nan nan nan nan nan nan nan nan nan nan nan nan nan nan nan nan nan nan nan
nan nan nan nan nan nan nan nan nan nan nan nan nan nan nan nan nan nan nan nan nan nan nan nan nan nan nan -1 -2 -2 -3 nan nan nan nan nan nan nan nan nan nan nan nan nan nan nan nan nan nan nan nan nan nan nan nan nan nan nan nan nan nan nan nan nan nan nan nan nan nan nan nan nan nan nan nan nan nan nan nan nan nan nan nan nan nan nan
nan nan nan nan nan nan nan nan nan nan nan nan nan nan nan nan nan nan nan nan nan nan nan nan nan nan nan nan nan nan nan nan nan nan nan nan nan nan nan nan nan nan nan nan nan nan nan nan nan nan nan nan nan nan nan nan nan nan nan nan nan nan nan nan nan nan nan nan nan nan nan nan nan nan nan nan nan nan nan nan nan nan nan nan nan nan
nan nan nan nan nan nan nan nan nan nan nan nan nan nan nan nan nan nan nan nan nan nan nan nan nan nan nan nan nan nan nan nan nan nan nan nan nan nan nan nan nan nan nan nan nan nan nan nan nan nan nan nan nan nan nan nan nan nan nan nan nan nan nan nan nan nan nan nan nan nan nan nan nan nan nan nan nan nan nan nan nan nan nan nan nan nan
nan nan nan nan nan nan nan nan nan nan nan nan nan nan nan nan nan nan nan nan nan nan nan nan nan nan nan nan nan nan nan nan nan nan nan nan nan nan nan nan nan nan nan nan nan nan nan nan nan nan nan nan nan nan nan nan nan nan nan nan nan nan nan nan nan nan nan nan nan nan nan nan nan nan nan nan nan nan nan nan nan -0 -0 nan nan nan
nan nan nan nan nan nan nan nan nan nan nan nan nan nan nan nan nan nan nan nan nan nan nan nan nan nan nan nan nan nan nan nan nan nan nan nan nan nan nan nan nan nan nan nan nan nan nan nan nan nan nan nan nan nan nan nan nan nan nan nan nan nan nan nan nan nan nan nan nan nan nan nan nan nan nan nan nan nan nan nan nan nan nan nan nan nan
nan nan nan nan nan nan nan nan nan nan nan nan nan nan nan nan nan nan nan nan nan nan nan nan nan nan nan nan nan nan nan nan nan nan nan nan 0 0 nan nan nan nan nan nan nan nan nan nan nan nan nan nan nan nan nan nan nan nan nan nan nan nan nan nan nan nan nan nan nan nan nan nan nan nan nan nan nan nan nan nan nan nan nan nan nan nan
nan nan nan nan nan nan nan nan nan nan nan nan nan nan nan nan nan nan nan nan nan nan nan nan nan nan nan nan nan nan nan nan nan nan nan nan nan nan nan nan nan nan nan nan nan nan nan nan nan nan nan nan nan nan nan nan nan nan nan nan nan nan nan nan nan nan nan nan nan nan nan nan nan nan nan nan nan nan nan nan nan nan nan nan nan nan
nan nan nan nan nan nan nan nan nan nan nan nan nan nan nan nan nan nan nan nan nan nan nan nan nan nan nan nan nan nan nan nan nan nan nan nan nan nan nan nan nan nan nan nan nan nan nan nan nan nan nan nan nan nan nan nan nan nan nan nan nan nan nan nan nan nan nan nan nan nan nan nan nan nan nan nan nan nan nan nan nan nan nan nan nan nan
nan nan nan nan nan nan nan nan nan nan nan nan nan nan nan nan nan nan nan nan nan nan nan nan nan nan nan nan nan nan nan nan nan nan nan nan nan nan nan nan nan nan nan nan nan nan nan nan nan nan nan nan nan nan nan nan nan nan nan nan nan nan nan nan nan nan nan nan nan nan nan nan nan nan nan nan nan nan nan nan nan nan nan nan nan nan
nan nan nan nan nan nan nan nan nan nan nan nan nan nan nan nan 0 0 nan nan nan nan nan nan nan nan nan nan nan nan nan nan nan nan nan nan nan nan nan nan nan nan nan nan nan nan nan nan nan nan nan nan nan nan nan nan nan nan nan nan nan nan nan nan nan nan nan nan nan nan nan nan nan nan nan nan nan nan nan nan nan nan nan nan nan nan
nan nan nan nan nan nan nan nan nan nan nan nan nan nan nan nan nan nan nan nan nan nan nan nan nan nan nan nan nan nan nan nan nan nan nan nan nan nan nan nan nan nan nan nan nan nan nan nan nan -1 0 nan nan nan nan nan nan nan nan nan nan nan nan nan nan nan nan nan nan nan nan nan nan nan nan nan nan nan nan nan nan nan nan nan nan nan
nan nan nan nan nan nan nan nan nan nan nan nan nan nan nan nan nan nan nan nan nan nan nan nan nan nan nan nan nan nan nan nan nan nan nan nan nan nan nan nan nan nan nan nan nan nan nan nan nan nan 0 0 0 0 nan nan nan nan nan nan nan nan nan nan nan nan nan nan nan nan nan nan nan nan nan nan nan nan nan nan nan nan nan nan nan nan
Wind_Speed
4 4 3 5 5 5 5 6 7 7 7 6 6 6 6 7 7 7 8 9 8 8 8 8 8 8 11 16 20 22 23 23 23 23 23 23 23 23 23 22 22 22 21 21 21 21 21 21 22 22 22 23 22 22 22 22 21 21 21 21 21 21 21 21 20 20 20 20 20 20 21 21 21 21 22 22 22 23 23 23 24 24 24 24 24 24
5 4 3 5 6 6 5 6 7 8 8 7 6 6 6 6 6 5 6 7 7 7 7 7 7 8 8 12 17 21 22 22 22 22 22 22 22 22 22 21 21 21 21 21 21 21 21 22 22 22 23 23 23 22 22 22 21 21 21 21 21 21 21 20 20 20 19 19 20 20 21 21 21 21 22 22 22 23 23 23 23 23 23 24 24 24
5 5 5 5 6 6 6 6 7 8 9 8 7 7 6 7 6 5 5 6 7 7 7 7 7 8 8 10 15 19 21 22 22 22 22 22 21 21 21 21 21 21 21 21 21 21 22 22 23 23 23 23 23 23 22 22 22 21 21 21 21 20 20 20 20 20 19 19 20 20 20 21 21 21 22 22 22 23 23 23 23 23 23 24 24 24
6 6 6 5 6 7 7 7 6 7 7 8 8 7 7 7 6 6 5 5 6 6 7 7 7 8 8 8 12 17 21 22 22 22 22 22 21 21 21 21 21 21 22 22 22 22 23 23 23 24 24 24 23 23 23 22 22 22 21 21 21 20 20 20 20 20 19 19 20 20 20 20 21 21 22 22 22 22 23 23 23 23 24 24 24 24
7 6 6 5 6 6 7 6 6 6 6 7 7 7 6 6 6 5 5 5 5 6 6 6 7 7 7 7 10 15 19 21 22 22 22 22 21 21 21 21 22 22 23 23 23 24 24 24 24 24 24 24 24 23 23 23 22 22 22 21 21 21 20 20 20 20 19 19 19 20 20 20 21 21 21 22 22 22 23 23 23 23 24 24 24 24
7 6 6 6 6 6 5 5 5 5 5 6 6 6 5 5 5 5 5 5 5 6 6 6 6 7 7 7 10 14 18 20 22 22 22 22 22 22 22 22 23 23 24 24 24 24 25 25 25 24 24 24 24 24 23 23 23 22 22 21 21 21 21 20 20 20 19 19 19 19 20 20 20 21 21 22 22 22 23 23 23 23 24 24 24 24
6 6 5 6 6 5 5 5 5 5 5 5 5 5 5 5 5 6 6 6 6 5 5 5 5 6 6 8 10 13 15 18 20 21 22 22 22 22 22 23 24 24 25 25 25 25 25 25 25 25 25 24 24 24 24 23 23 22 22 21 21 21 20 20 20 19 19 19 19 19 19 20 20 20 21 22 22 22 23 23 23 23 23 24 24 24
7 6 6 6 6 5 5 5 5 6 6 5 5 5 6 5 6 6 6 6 6 5 5 5 5 5 6 6 8 10 11 12 14 15 17 18 19 20 21 22 23 24 25 25 25 25 25 25 25 25 25 25 24 24 24 23 23 22 22 21 21 21 20 20 19 19 19 19 19 19 19 19 20 20 21 22 22 22 22 23 23 23 23 24 24 24
8 7 7 7 6 6 5 6 6 6 6 5 5 6 6 6 6 6 6 6 6 6 5 6 6 6 6 6 7 7 9 9 9 10 11 11 12 14 17 19 21 23 24 24 25 25 26 26 26 25 25 25 25 24 24 24 23 22 21 21 21 20 20 19 19 19 19 18 18 19 19 19 20 21 21 22 22 22 22 22 23 23 23 23 24 24
9 8 7 7 6 6 6 6 6 5 5 5 5 6 6 7 6 6 6 7 7 6 6 7 7 7 7 6 6 7 8 10 12 13 14 14 14 14 16 17 17 19 22 23 24 25 25 25 26 26 25 25 25 24 24 23 23 22 21 21 20 20 19 19 18 18 18 18 18 19 19 20 20 21 21 22 22 22 22 22 22 23 23 23 24 24
8 8 7 7 6 6 6 6 5 4 4 5 5 6 6 6 6 6 7 7 7 7 7 7 8 8 7 6 7 7 8 8 10 12 15 16 17 18 18 18 18 19 21 22 23 24 25 25 25 25 25 25 24 24 23 23 22 21 21 20 20 19 19 18 18 18 18 18 18 19 19 20 21 21 21 22 22 22 22 22 22 23 23 24 24 24
7 6 6 6 5 5 5 5 4 4 4 4 5 6 7 6 6 6 7 7 7 7 7 7 7 7 7 7 6 7 7 7 7 7 8 10 12 14 14 14 15 17 18 19 21 22 24 25 25 25 24 24 24 23 23 22 21 21 20 20 19 18 18 18 17 17 17 18 19 19 20 21 21 21 21 22 22 22 22 22 22 23 23 24 24 24
6 5 5 5 5 5 5 5 5 4 5 6 7 7 7 6 6 6 7 7 7 6 6 6 6 6 7 7 6 6 6 6 6 6 6 6 7 8 8 8 9 10 11 12 13 15 19 21 22 23 23 23 22 22 22 21 20 20 19 19 18 18 17 17 17 17 18 18 19 20 21 21 21 21 22 22 22 22 22 22 22 23 23 24 24 24
6 5 5 6 6 6 5 6 6 6 7 7 7 7 6 5 5 6 6 7 7 6 5 5 5 6 6 6 6 6 6 6 6 6 6 6 6 6 6 6 7 7 7 7 8 9 13 15 15 16 20 20 20 20 19 19 19 19 18 18 18 18 17 17 17 18 18 19 20 21 21 21 21 21 21 22 22 22 22 22 23 23 23 24 24 24
7 6 7 7 7 6 6 6 7 7 7 6 6 5 5 5 5 6 7 7 6 5 5 6 6 6 5 6 6 6 6 6 6 6 7 7 7 7 7 7 7 7 7 7 7 8 11 11 9 9 11 13 14 14 15 15 16 17 18 18 18 18 18 18 18 19 19 20 21 21 21 21 21 21 21 22 22 22 22 23 23 23 23 24 24 24
7 7 8 8 8 7 6 6 6 6 6 5 5 5 6 6 6 6 7 7 6 5 5 6 6 6 5 5 5 6 6 6 6 7 7 7 7 7 7 7 7 7 7 8 8 8 8 8 8 7 7 10 13 15 16 15 16 17 18 18 18 18 18 19 19 20 20 21 21 21 21 21 21 21 21 21 22 22 22 23 23 23 23 24 24 24
7 8 8 8 8 8 6 6 6 6 5 5 5 6 6 6 6 6 6 6 5 5 5 5 5 5 4 4 5 6 7 7 6 6 7 7 7 7 7 7 8 8 8 8 8 8 7 7 7 7 7 11 14 17 18 18 18 19 19 19 19 19 20 20 20 21 21 21 21 21 21 21 21 21 21 21 22 22 22 23 23 23 23 24 24 25
8 8 8 8 8 7 6 6 6 6 5 5 6 6 6 6 6 6 6 6 6 5 5 5 5 5 4 4 4 5 8 7 7 6 7 7 7 6 7 7 8 8 8 8 8 7 7 7 7 8 9 14 17 18 19 20 20 20 21 21 21 21 21 21 21 21 21 21 21 21 21 21 21 21 21 22 22 22 22 23 23 23 24 24 24 25
9 9 9 9 8 7 6 7 7 6 6 6 6 6 6 6 6 6 6 6 6 6 6 6 6 5 5 4 3 4 7 7 7 6 6 7 7 6 6 6 7 8 8 8 8 8 7 7 9 11 14 17 19 20 21 21 21 21 22 21 21 21 21 21 21 21 21 21 21 21 21 21 21 21 21 22 22 22 22 23 23 24 24 24 25 25
10 10 10 8 7 7 8 8 8 7 7 7 6 6 6 6 7 7 7 7 7 7 6 7 7 7 5 5 4 4 5 6 6 6 7 7 6 6 6 6 7 8 8 8 8 7 7 7 8 11 16 18 19 21 21 22 22 22 22 22 22 22 22 22 21 21 21 21 21 21 21 21 21 21 22 22 22 22 23 23 23 24 24 24 25 25
11 11 11 9 8 8 8 8 9 9 9 8 8 7 7 7 7 7 7 7 7 8 7 8 8 7 6 5 5 4 5 6 6 6 5 5 5 5 5 6 7 8 8 8 7 7 7 6 6 8 12 17 19 21 22 22 22 22 22 22 22 22 22 22 21 21 21 21 21 21 21 21 21 21 22 22 22 23 23 23 24 24 24 25 25 26
11 11 10 10 9 9 9 9 10 11 11 11 9 8 8 8 8 9 8 8 8 9 9 9 8 7 6 5 5 4 5 6 6 5 4 4 5 5 4 5 6 7 8 7 7 6 6 6 6 8 11 17 19 21 22 22 22 22 22 22 22 22 22 22 22 22 22 22 21 21 21 21 21 21 22 22 22 23 23 23 24 24 25 25 25 26
11 10 9 10 10 10 9 8 9 10 11 11 11 10 8 9 9 9 9 9 9 8 8 7 6 5 5 5 4 4 5 6 5 5 4 5 5 5 4 5 5 6 7 7 6 5 5 6 6 8 11 17 20 21 22 22 22 22 22 22 22 22 22 22 22 22 22 22 22 21 21 21 21 21 22 22 22 23 23 24 24 25 25 25 26 26
11 10 9 9 9 8 8 7 7 8 9 10 10 9 9 8 8 8 7 7 7 6 5 5 5 5 5 6 5 5 5 6 5 5 5 5 5 4 4 5 6 7 7 6 5 5 5 5 6 7 8 15 19 21 22 22 22 22 22 22 22 22 22 22 22 22 22 22 22 21 21 21 21 21 22 22 22 23 23 24 24 25 25 26 26 27
10 10 9 9 10 10 10 9 9 9 9 9 9 9 8 8 8 7 5 5 5 4 4 5 5 6 6 6 6 6 6 6 6 6 5 5 4 4 4 4 5 6 6 5 4 4 5 5 5 6 6 11 16 20 21 22 22 22 22 22 22 22 22 22 22 22 22 22 22 21 21 21 21 21 22 22 22 23 23 24 24 25 25 26 26 27
11 12 12 14 15 17 18 17 17 16 15 12 10 8 8 8 7 6 5 5 5 5 6 6 7 7 6 5 6 6 6 6 7 7 6 5 4 4 4 4 4 5 5 4 4 4 5 5 5 5 5 7 12 17 19 21 21 22 22 22 22 22 22 22 22 22 22 22 22 21 21 21 21 21 22 22 22 23 23 24 25 25 26 26 26 26
18 18 19 20 22 24 25 25 24 24 24 20 16 13 10 8 8 8 8 7 7 7 7 8 8 7 6 6 6 6 6 6 7 7 7 5 5 5 4 4 4 4 4 4 4 4 5 5 5 5 5 6 8 11 17 19 20 21 22 22 22 22 22 22 22 22 22 22 21 21 21 21 21 21 22 22 23 23 24 24 25 25 25 24 22 21
24 22 21 22 24 25 27 28 28 28 28 27 25 21 15 10 9 10 10 9 8 8 8 9 8 7 7 6 6 5 6 6 7 7 7 5 5 5 4 4 4 4 4 3 3 4 5 6 6 5 5 6 6 8 12 16 19 20 21 22 22 22 22 22 22 22 21 21 21 21 21 21 21 22 22 22 23 23 24 24 25 24 23 20 15 12
23 23 23 22 22 23 25 26 27 28 29 29 29 26 19 12 11 11 10 9 8 9 9 9 9 8 7 6 5 5 6 6 7 7 7 6 5 5 4 4 4 4 4 3 3 3 4 5 5 5 5 6 7 7 9 13 15 16 18 20 21 21 21 21 21 21 21 21 21 21 21 21 21 22 22 23 23 23 24 25 24 22 17 14 12 10
15 17 17 18 17 17 16 17 20 23 27 29 30 27 20 13 11 10 9 9 9 9 9 9 9 8 7 5 5 5 6 6 6 7 7 6 5 5 4 4 4 4 4 3 2 2 3 4 4 5 6 7 7 7 6 8 9 10 11 14 16 17 19 20 20 20 20 20 21 21 21 21 22 22 23 23 23 23 24 25 23 18 12 10 10 10
10 10 10 11 10 9 8 8 10 14 19 24 26 24 18 13 10 9 9 9 9 9 9 9 8 8 7 6 5 5 5 5 6 7 7 6 5 5 5 5 5 4 4 4 3 3 3 3 3 4 6 6 7 6 6 6 6 6 6 7 8 11 15 17 18 19 19 20 20 21 21 22 22 22 22 23 23 23 24 24 22 17 11 9 9 10
8 8 8 8 7 6 6 5 5 6 9 13 16 17 15 12 10 9 9 9 9 9 9 9 8 8 8 7 6 5 4 4 6 8 8 6 5 4 5 5 5 4 4 5 4 4 3 2 2 3 4 4 4 5 6 6 6 5 5 5 6 8 12 14 15 16 16 17 19 20 21 21 21 22 22 22 23 23 24 24 22 18 11 10 9 10
8 7 7 7 6 6 5 5 5 5 5 6 8 10 11 11 10 10 10 9 9 9 9 9 9 8 8 8 7 6 4 3 6 9 10 7 5 4 4 5 5 4 4 5 5 4 3 3 2 2 2 3 3 4 5 6 6 6 6 6 6 7 9 10 11 11 12 13 14 16 18 19 20 20 21 22 22 23 24 24 23 20 15 11 10 10
8 8 7 7 6 6 6 6 6 6 6 6 6 7 7 8 8 9 10 10 10 10 10 10 9 9 8 8 7 7 6 5 6 9 11 8 5 4 4 5 5 5 4 5 5 4 3 3 3 2 2 2 3 3 4 5 6 6 6 6 6 6 7 7 7 8 9 9 9 10 12 13 15 17 18 20 21 22 22 23 23 22 20 15 12 11
8 8 8 7 7 7 6 6 7 7 7 7 7 7 7 7 6 6 7 8 9 9 9 10 10 10 9 8 7 7 7 6 7 9 10 8 6 4 4 5 6 5 5 5 5 4 4 4 4 4 3 3 3 3 4 4 5 5 5 6 6 6 6 6 6 6 7 7 7 7 7 8 9 11 13 16 18 20 22 23 23 24 23 21 18 14
8 8 8 8 7 7 7 7 7 7 7 7 7 7 7 7 6 6 5 6 8 9 10 10 10 10 9 9 8 8 7 6 7 9 10 8 6 5 4 5 6 6 6 6 5 5 4 4 5 5 5 4 4 4 3 4 4 4 5 5 6 6 6 6 6 6 6 6 6 7 7 7 8 9 10 15 18 20 22 23 23 24 24 23 22 19
8 8 9 8 8 8 8 8 7 7 8 7 7 7 8 8 7 7 6 6 6 7 9 10 11 11 11 10 9 8 7 6 6 8 10 8 7 6 5 5 6 7 7 7 6 5 5 4 5 5 5 6 5 4 3 3 3 4 4 5 5 5 5 5 6 5 5 6 7 8 8 8 8 9 10 15 17 19 20 21 22 22 23 23 23 23
9 9 9 8 8 8 8 8 8 8 8 8 8 8 8 9 9 9 8 7 7 7 8 9 10 11 15 14 12 10 7 6 7 8 10 9 8 7 6 5 6 7 7 7 6 6 6 5 5 5 5 5 6 5 4 3 3 4 4 4 4 5 5 5 5 5 6 7 8 9 9 9 9 9 9 11 11 11 12 13 14 16 19 19 20 22
9 9 9 9 8 8 8 8 8 8 8 8 8 8 8 8 9 9 8 8 8 7 8 8 8 10 13 15 15 13 11 9 8 9 10 9 8 7 7 6 6 6 7 6 6 6 6 6 6 6 5 5 5 5 4 4 4 4 4 4 4 5 5 5 5 6 6 7 8 9 10 9 8 8 8 8 8 8 9 9 10 11 12 11 13 16
9 9 9 9 9 8 8 8 8 8 7 7 7 7 7 6 6 7 8 7 7 7 7 7 6 7 9 11 12 13 12 9 9 9 9 8 8 7 7 7 6 6 6 6 6 6 7 6 6 6 6 5 5 4 4 5 5 5 5 4 5 5 5 5 5 5 6 6 7 8 8 8 8 8 8 8 8 8 8 7 8 9 9 8 8 9
9 9 9 8 8 8 9 8 8 7 7 6 6 6 6 6 6 6 6 7 7 7 6 5 5 4 5 5 6 8 9 8 9 9 8 8 9 8 7 7 6 6 6 6 6 7 7 7 7 7 7 6 6 6 6 6 7 7 8 7 6 5 5 6 6 6 6 6 7 8 9 9 9 9 9 9 9 8 8 8 8 9 9 8 7 7
10 9 8 7 6 6 7 7 7 7 7 6 6 7 7 7 7 7 6 7 7 7 6 6 5 5 4 4 4 4 5 6 7 8 8 9 9 9 8 7 6 6 6 6 7 7 8 8 8 8 7 7 6 6 7 7 8 8 8 8 7 7 7 7 6 5 6 7 7 8 9 9 9 9 9 9 9 8 8 9 10 11 11 9 8 8
9 8 7 6 6 6 7 7 7 7 6 7 7 8 8 7 7 7 7 7 8 8 8 7 7 6 6 6 5 5 5 5 6 7 7 7 8 9 9 8 7 7 6 6 6 7 8 8 9 8 8 7 6 7 8 8 8 8 8 8 7 6 5 5 4 4 5 7 7 7 8 8 8 8 8 8 8 8 8 10 12 13 13 11 10 9
8 7 6 6 6 6 6 7 7 7 7 7 8 8 8 8 8 8 8 7 7 8 8 7 7 7 7 8 7 6 5 6 6 6 7 8 9 9 9 9 9 8 8 7 6 6 6 8 9 8 7 7 7 7 8 8 8 8 7 8 8 7 7 5 5 5 6 7 7 7 7 7 7 7 7 8 8 8 8 9 9 10 11 11 10 10
6 6 6 6 6 6 7 8 7 7 7 8 8 8 7 8 8 8 8 7 7 7 7 6 6 6 7 7 7 6 5 5 5 5 6 9 11 11 10 9 8 8 8 8 8 7 6 7 7 7 6 7 8 9 9 9 9 8 8 8 8 9 9 8 7 7 8 8 7 7 8 6 6 7 7 8 9 9 9 9 9 10 10 10 10 10
5 5 5 6 6 7 8 8 8 7 8 8 8 8 7 8 8 8 8 8 7 7 7 6 6 6 7 7 6 6 5 5 5 5 5 6 8 9 9 9 9 8 8 8 8 8 7 7 6 6 6 7 8 9 10 9 9 8 8 8 8 8 9 9 9 8 8 8 8 8 8 7 6 7 8 9 10 10 10 10 10 10 10 10 10 11
5 6 6 6 6 7 8 8 8 8 8 8 8 8 7 7 7 7 8 8 7 6 6 6 7 7 7 7 6 6 6 6 5 5 5 5 6 6 7 7 8 9 8 8 8 8 8 8 7 7 6 7 8 9 9 9 8 8 8 8 8 8 8 9 8 8 8 9 8 7 6 6 6 8 10 10 10 10 10 10 10 10 10 10 10 11
6 6 6 6 6 7 7 7 7 8 8 8 8 7 7 8 8 8 7 7 7 6 7 6 7 7 8 7 7 7 7 7 6 5 5 5 5 5 6 5 6 7 7 7 8 8 8 8 8 8 8 8 8 8 8 8 8 8 7 7 7 8 9 9 9 8 8 8 8 8 6 6 8 9 10 10 10 10 10 10 10 10 10 10 10 11
6 6 6 6 6 7 7 7 8 8 8 8 7 7 7 8 10 10 8 7 7 7 7 7 7 7 7 7 7 7 7 7 6 5 5 5 5 5 5 5 4 4 4 5 6 6 7 8 9 10 9 9 9 9 9 8 8 8 7 7 7 8 9 9 9 8 8 8 8 8 7 7 8 9 10 11 12 12 11 11 11 10 10 10 10 11
6 6 6 6 7 7 7 8 8 8 8 8 8 7 7 7 8 9 8 7 7 7 7 7 8 8 8 7 7 7 7 6 5 5 5 5 5 5 5 5 5 4 4 4 4 4 4 6 8 10 13 13 12 11 10 9 9 8 8 8 8 8 9 9 9 9 8 8 9 9 8 8 9 9 9 11 12 13 13 12 11 10 9 9 10 11
6 6 6 6 7 7 7 7 8 8 9 9 8 8 7 7 7 7 7 7 7 7 7 7 8 8 8 8 8 8 7 7 6 5 5 4 5 5 6 6 6 5 4 4 4 4 4 4 5 8 12 16 18 16 11 10 9 9 9 9 9 8 9 9 9 9 9 9 9 8 8 9 9 9 9 10 11 12 12 12 12 11 9 9 10 11
Wind_Direction
249 238 211 193 198 213 224 212 215 224 235 235 235 237 243 243 242 240 237 235 234 232 231 230 229 231 236 238 239 240 240 240 240 241 240 241 241 241 241 242 242 242 243 245 246 248 250 251 252 253 253 252 252 251 251 251 251 252 252 253 253 254 255 256 257 259 262 264 267 269 271 273 275 276 277 277 278 278 278 279 280 281 283 284 284 285
248 243 226 196 202 216 232 210 209 217 228 231 231 231 231 235 238 240 240 238 236 232 230 230 228 227 229 236 239 240 240 241 241 241 241 241 241 241 242 242 243 244 245 247 248 250 251 253 253 253 252 252 251 250 250 250 250 251 251 252 253 254 256 258 260 262 264 266 268 270 272 273 274 276 277 277 278 279 280 281 282 282 283 283 283 283
247 245 236 208 207 218 235 218 212 215 223 228 229 227 223 227 231 234 235 237 236 234 231 230 228 226 226 232 237 239 240 240 241 241 241 241 241 241 242 243 245 246 247 249 250 251 252 253 253 253 252 251 250 249 248 249 249 249 250 251 252 254 256 258 261 263 265 267 268 269 271 272 274 275 276 277 278 279 280 281 281 281 281 281 281 281
245 245 241 226 220 223 232 226 219 215 219 226 228 227 222 224 228 231 230 232 234 235 234 230 228 227 226 229 234 237 238 239 240 241 241 241 242 242 243 244 246 248 249 251 252 252 253 253 252 252 250 249 248 247 247 247 247 248 248 249 251 253 255 258 260 262 263 265 266 267 269 270 272 274 275 276 277 278 278 279 279 279 280 280 280 280
241 242 242 237 234 231 229 226 221 216 216 222 225 226 223 225 229 232 232 231 232 234 234 230 227 226 226 226 231 234 237 238 239 240 241 242 242 243 244 246 248 249 251 252 252 253 253 252 251 250 249 247 246 246 245 245 246 246 247 248 249 251 254 256 258 259 261 262 264 265 267 269 270 272 273 275 276 277 277 278 278 279 279 279 280 280
241 239 239 238 238 237 229 225 221 218 216 220 221 222 224 227 229 233 233 231 231 232 233 230 226 225 225 225 229 233 235 238 239 241 242 243 244 245 246 247 249 250 251 252 253 253 252 251 250 249 247 246 245 244 244 244 245 245 246 247 249 251 253 255 256 258 259 260 262 264 266 268 270 272 273 275 276 276 277 278 278 279 279 279 279 279
243 238 235 237 239 239 234 228 222 218 219 222 222 221 222 225 227 229 231 230 230 231 232 230 226 224 224 226 229 233 236 239 241 242 244 245 246 247 248 249 250 251 252 252 252 252 251 250 249 247 245 244 243 243 243 243 244 245 246 247 249 251 252 254 255 257 258 260 262 264 266 269 270 272 274 275 275 276 277 277 278 278 278 279 279 279
245 239 232 235 237 238 236 231 223 219 219 221 222 222 223 223 224 226 227 228 229 231 233 233 231 227 222 224 227 231 234 239 242 244 246 247 249 250 250 251 252 252 252 252 252 251 250 249 247 245 243 242 242 241 242 243 244 245 246 247 249 250 252 253 255 256 258 260 263 265 267 269 271 272 273 274 275 275 276 276 276 277 277 277 277 277
243 241 234 231 230 232 235 233 225 218 216 218 220 221 222 223 223 223 223 226 226 226 228 232 234 232 226 221 222 227 232 234 237 239 242 245 248 249 251 252 253 253 253 253 252 251 250 248 246 244 242 241 240 241 241 242 243 244 245 246 248 249 250 252 254 256 258 260 263 265 268 269 271 272 273 274 274 275 275 275 275 275 276 276 276 276
239 239 238 232 228 226 231 233 226 217 210 216 219 221 221 222 223 223 224 224 222 221 221 226 230 233 231 224 221 224 231 235 237 238 239 241 241 242 246 248 250 251 252 252 252 251 249 247 245 243 241 240 240 240 241 242 243 244 245 246 247 248 250 251 253 256 258 261 263 266 268 270 271 272 272 273 273 273 273 274 274 274 274 274 274 274
236 235 235 234 231 227 228 230 225 214 203 213 221 225 224 221 220 221 226 226 223 219 220 223 226 228 231 229 226 225 228 234 239 241 242 243 243 243 244 244 246 247 248 249 249 249 248 246 244 242 240 240 240 240 241 242 243 244 245 246 247 248 250 251 254 256 259 261 264 266 268 269 270 271 271 272 272 272 273 273 273 273 274 274 274 275
232 231 230 230 228 227 227 225 219 208 198 208 218 225 226 221 217 219 226 228 224 220 220 223 224 225 226 228 228 227 227 232 235 239 241 243 244 244 245 245 245 246 246 247 247 246 245 244 242 241 239 239 239 239 239 240 242 243 244 245 247 248 250 251 254 256 259 262 264 266 268 269 269 270 270 271 271 272 272 273 273 274 274 275 275 276
229 227 227 227 225 222 221 218 214 209 206 209 215 219 221 216 214 218 226 230 228 223 221 224 225 225 223 223 224 226 228 231 233 234 235 236 237 239 241 243 244 244 243 244 244 243 242 241 240 239 238 237 237 238 238 239 241 242 244 245 246 248 249 251 253 256 259 261 264 265 267 268 268 269 270 271 271 272 273 273 274 274 275 275 276 276
226 224 224 224 223 221 217 214 213 213 213 213 215 217 217 211 210 215 225 231 231 227 224 229 230 228 224 221 220 221 224 229 232 233 233 232 229 228 230 235 237 237 237 237 238 238 238 237 238 238 236 236 237 237 238 239 241 242 244 245 246 247 248 250 253 256 259 261 263 265 266 267 268 269 270 271 272 273 274 274 274 274 275 275 275 276
221 219 222 223 222 219 215 213 215 217 217 215 215 216 216 211 209 212 220 227 228 226 226 232 235 234 229 222 218 217 219 224 228 231 233 233 229 224 222 229 232 233 231 232 233 234 233 233 234 236 236 236 237 237 238 241 242 244 244 245 245 246 248 250 253 256 258 260 262 264 265 267 268 269 271 272 273 273 274 274 274 274 274 275 275 275
217 216 220 223 223 221 215 212 215 218 219 215 211 210 211 211 210 211 216 221 221 220 222 229 234 236 234 223 215 211 213 220 225 228 232 234 229 221 215 222 227 228 227 227 228 228 228 230 230 231 233 236 238 239 240 240 242 243 243 244 245 246 248 250 253 255 257 260 261 263 265 267 268 270 271 272 273 273 274 274 274 275 275 275 275 276
217 217 220 222 223 222 217 213 213 214 213 211 209 208 209 210 210 211 214 215 215 216 218 222 227 233 236 223 211 206 206 214 220 226 230 233 228 219 210 215 221 224 223 224 224 224 222 224 225 226 229 233 235 237 238 239 240 241 241 242 244 245 247 250 252 254 257 259 261 263 265 267 268 270 271 272 273 273 274 274 275 275 275 276 276 276
217 217 218 221 221 220 213 211 210 208 206 208 209 210 211 211 211 212 215 213 214 216 219 221 224 228 232 226 209 197 195 206 214 221 227 232 229 220 209 212 217 221 222 222 222 220 219 219 219 220 224 230 233 235 236 238 238 239 240 241 242 244 247 249 252 254 257 259 261 263 265 266 268 269 270 272 273 274 274 275 275 276 276 276 276 277
216 215 216 218 218 216 213 210 207 205 204 205 205 206 210 211 211 212 215 215 216 217 219 223 227 229 230 229 213 188 185 196 206 215 223 229 228 221 208 210 215 220 223 223 221 219 217 218 219 220 223 227 230 232 234 235 236 237 238 240 242 244 246 249 252 254 257 259 261 262 264 266 267 269 270 271 272 273 274 275 276 276 277 277 277 277
217 215 213 214 214 215 216 213 208 204 202 201 200 201 205 206 208 212 215 216 218 220 220 225 229 230 229 230 220 196 177 187 199 210 221 226 226 220 208 208 213 218 223 223 221 217 215 215 218 222 225 226 228 230 231 233 234 236 237 239 242 244 247 250 252 255 257 259 260 262 264 265 267 268 269 271 272 273 274 275 276 277 278 278 278 278
218 218 213 207 208 212 216 213 208 203 199 196 196 198 201 203 207 211 213 215 217 220 221 225 227 228 225 228 220 198 174 185 196 207 218 224 224 219 206 206 211 216 222 223 220 216 214 211 211 216 222 225 227 229 230 232 234 235 237 240 243 245 248 250 253 255 257 259 260 262 263 265 266 267 269 270 272 273 274 275 276 277 278 278 279 279
219 220 214 208 208 212 215 210 205 201 196 193 194 197 199 201 205 209 210 211 214 217 219 222 225 226 225 229 221 197 175 189 198 204 214 224 225 219 203 201 208 215 222 222 218 213 209 208 209 213 219 223 226 228 230 232 234 236 239 241 244 246 249 251 253 255 257 259 260 262 263 264 265 266 268 269 271 273 274 275 276 278 278 279 280 280
220 221 217 212 212 213 215 210 204 198 195 195 196 199 198 199 203 206 207 208 211 215 218 223 226 228 228 230 224 207 188 194 199 205 214 225 225 217 198 195 204 214 220 220 215 209 204 207 209 212 218 223 226 229 231 234 236 238 241 243 245 247 249 251 253 255 257 259 260 261 262 263 264 266 267 269 271 272 274 275 277 278 279 280 280 281
220 221 219 216 213 213 212 209 203 198 196 198 199 201 201 202 205 207 207 208 210 213 217 222 226 229 229 227 227 221 204 197 198 204 217 227 227 218 196 193 203 213 220 217 210 202 200 207 208 210 216 224 227 230 233 235 238 240 242 244 246 248 250 252 254 256 257 259 260 261 262 263 264 265 267 269 270 272 274 275 277 279 280 281 281 282
217 217 217 215 212 210 209 208 204 200 197 198 199 201 202 205 209 211 212 209 207 206 207 213 218 222 223 221 222 222 213 201 199 204 216 227 230 223 205 197 204 213 220 214 203 196 196 206 209 210 214 224 229 232 234 237 239 241 243 245 246 248 250 252 254 256 258 259 259 260 261 262 263 265 267 269 271 273 274 276 278 279 280 281 282 283
221 215 213 213 214 214 213 212 210 206 202 199 197 196 196 199 204 207 208 205 200 198 199 207 213 216 215 216 217 218 213 204 203 206 213 223 229 227 216 204 207 216 222 214 200 193 198 208 211 210 211 222 229 233 236 238 240 242 244 245 247 249 251 253 255 256 257 258 259 260 261 262 263 265 267 269 271 273 275 276 278 280 281 283 284 284
238 227 217 215 215 216 216 216 215 212 208 205 201 196 191 191 196 202 207 202 196 195 199 207 213 216 214 215 216 215 210 206 205 206 208 218 226 228 220 210 210 216 224 220 207 200 205 213 215 214 214 217 225 231 236 238 240 242 244 246 248 249 251 253 255 256 257 258 258 259 260 262 264 266 268 270 272 273 275 277 279 281 283 284 285 285
252 246 235 225 220 218 218 218 218 216 214 211 206 201 194 191 196 203 206 199 195 196 202 207 211 213 214 215 215 213 210 209 205 201 199 210 222 226 217 210 208 212 218 224 219 215 216 220 221 219 218 216 218 226 233 236 239 242 244 246 248 250 251 253 254 255 256 257 258 260 261 263 265 267 268 270 272 274 275 277 279 282 284 285 285 284
257 257 255 247 237 229 223 222 221 220 218 216 212 207 199 195 199 204 205 196 195 199 206 208 210 213 215 216 216 215 214 213 203 194 189 203 218 224 212 209 207 206 207 218 226 229 229 228 225 223 224 221 219 220 227 232 237 241 243 246 248 250 251 252 254 255 256 257 259 260 262 264 265 267 268 270 272 274 276 278 280 282 284 284 283 282
255 258 260 260 256 248 238 229 225 223 222 220 218 214 206 201 201 204 202 196 196 200 206 209 210 211 212 215 217 219 219 213 200 187 183 199 212 217 206 208 206 200 191 197 213 231 235 229 223 221 224 224 222 221 220 224 229 234 240 244 247 249 250 252 253 255 257 259 260 261 263 264 266 267 268 270 272 274 276 278 280 281 282 281 280 279
243 246 250 254 257 257 253 244 235 229 226 224 222 219 213 206 203 202 200 198 199 201 204 207 208 207 207 208 213 217 218 207 192 183 179 197 208 210 199 204 203 197 188 189 196 212 231 228 221 216 214 219 221 221 217 217 219 222 226 234 240 245 247 250 252 255 257 259 261 262 263 265 266 267 268 270 272 274 276 278 279 280 281 279 278 277
231 234 238 240 242 244 245 246 243 238 232 228 225 222 219 212 204 199 199 199 200 201 204 206 207 207 207 210 214 217 215 199 186 181 180 195 206 207 196 202 202 197 193 196 200 206 218 224 217 207 201 208 214 217 214 212 211 212 213 218 227 237 242 245 249 253 256 259 261 262 264 265 266 267 269 270 272 274 276 277 278 278 278 276 275 275
224 225 228 229 230 229 228 228 228 230 233 233 230 227 224 217 208 201 198 199 200 200 202 205 207 209 210 214 218 221 220 203 187 183 183 191 199 203 196 200 200 197 193 203 209 213 219 223 219 205 194 199 202 206 208 208 207 205 205 211 219 229 236 239 244 249 253 257 259 262 263 265 267 268 270 271 273 274 275 276 276 276 275 273 272 272
219 220 221 221 221 220 219 218 218 219 222 227 230 231 231 226 216 206 199 200 200 201 201 202 204 207 209 213 217 221 223 207 191 186 186 189 195 199 192 199 200 196 189 202 210 218 229 229 227 224 220 214 208 204 203 207 207 205 202 208 216 225 231 233 237 243 247 251 254 258 261 264 266 268 270 271 272 273 274 274 274 274 273 271 271 272
213 215 215 215 215 215 215 214 214 215 217 220 224 227 231 233 229 218 204 201 201 203 204 203 204 205 206 209 212 215 219 205 191 187 189 191 193 196 192 200 199 196 193 199 203 210 225 227 226 226 234 237 231 222 211 209 208 207 205 211 217 223 228 228 232 238 244 246 249 251 253 257 260 263 266 267 268 270 271 272 272 272 273 273 273 274
209 211 213 211 211 211 212 212 212 213 214 216 218 220 223 229 232 231 221 208 204 204 207 208 208 208 207 208 209 212 214 201 189 186 191 192 193 194 199 202 198 195 197 200 201 204 212 220 222 224 229 238 243 239 224 208 203 205 211 215 220 224 227 226 227 231 239 244 248 250 250 252 253 256 260 264 266 267 269 270 272 273 274 275 276 276
208 211 212 210 209 209 210 209 209 210 212 213 214 214 215 219 223 227 229 220 211 207 208 211 213 213 212 211 213 213 212 198 187 186 193 192 192 195 203 201 196 194 197 200 201 202 206 214 220 224 227 233 237 239 233 211 204 207 216 217 219 223 228 226 225 227 235 243 247 250 251 252 254 256 258 263 265 267 270 271 273 274 276 277 277 277
211 213 214 211 209 207 208 209 209 210 210 210 211 211 211 213 216 218 222 221 217 212 210 211 214 215 215 215 216 216 214 199 188 187 191 190 191 196 203 202 198 197 199 201 200 199 201 210 218 224 229 233 236 238 237 228 222 222 224 220 219 222 226 226 226 228 235 244 249 252 254 254 255 256 259 261 263 266 268 269 271 273 275 276 276 276
214 216 216 214 211 209 208 209 210 211 211 210 209 209 208 211 213 216 218 219 217 215 212 211 212 214 214 215 215 215 213 201 190 186 188 188 190 194 202 203 201 199 200 201 201 201 202 209 215 221 228 236 240 239 235 232 232 234 236 236 235 232 229 228 230 233 238 244 250 254 255 255 255 256 257 259 260 261 263 265 266 267 269 272 274 276
215 218 220 217 214 211 211 212 212 211 211 211 209 208 206 209 213 215 217 217 216 214 212 210 211 212 212 212 213 212 209 201 191 185 186 188 190 193 199 203 203 200 197 200 203 206 210 216 221 225 228 234 238 239 237 234 233 235 240 246 246 241 232 230 231 233 236 240 245 250 253 253 253 253 254 254 255 256 258 261 263 265 265 267 271 276
215 219 220 219 217 215 215 213 212 209 207 205 204 205 205 206 209 211 214 215 215 213 209 208 208 209 210 210 209 207 203 199 192 187 186 190 192 194 199 204 204 201 196 201 205 210 214 220 226 231 233 235 240 243 243 240 239 240 242 246 250 251 247 242 239 238 239 241 242 245 249 253 253 253 253 254 254 254 255 258 262 264 265 263 263 267
215 218 218 216 215 215 214 211 209 205 201 199 201 203 205 205 205 206 207 210 211 211 207 207 208 209 211 214 213 209 205 204 200 196 192 192 194 197 202 205 205 202 198 204 209 214 216 221 226 231 232 234 238 242 246 244 243 241 242 247 255 261 264 253 245 238 241 243 244 245 247 251 253 254 255 256 257 257 256 257 259 261 263 262 260 260
214 215 214 212 211 211 211 209 207 203 199 200 203 206 206 204 204 205 206 208 209 210 208 209 210 212 214 214 213 212 211 213 213 210 204 197 197 200 205 208 207 204 201 206 213 218 219 222 226 230 231 230 233 239 246 246 245 244 243 245 250 256 262 254 245 237 238 241 242 243 244 247 250 253 256 257 258 259 259 259 260 261 261 263 263 262
212 212 210 208 207 208 210 209 207 202 199 202 205 206 206 203 204 205 207 209 209 209 208 208 210 215 220 221 219 215 211 208 210 214 215 208 203 203 208 210 210 209 205 209 213 217 220 224 227 229 229 230 233 237 242 244 245 244 243 241 241 243 248 253 253 249 246 244 243 242 242 246 251 255 259 259 260 260 259 258 258 259 259 260 261 261
206 206 205 204 203 205 208 209 207 204 202 203 205 206 204 202 203 204 207 207 207 206 204 201 203 211 220 222 221 218 213 205 203 207 216 215 212 209 208 210 211 212 212 213 215 216 217 223 226 228 227 229 232 235 239 242 244 245 243 241 241 243 246 251 252 251 250 249 248 246 245 247 253 258 261 260 259 258 257 257 258 258 258 257 258 259
200 200 201 201 202 204 207 207 206 204 205 206 205 205 203 200 201 204 207 206 205 203 199 196 198 206 215 217 216 215 215 209 203 199 202 210 211 210 208 209 210 212 214 217 219 220 220 223 224 226 227 231 234 235 236 237 240 244 245 242 243 246 250 250 249 247 246 248 250 249 248 249 252 257 260 261 261 260 257 256 256 257 258 258 258 258
199 197 197 198 201 204 206 205 204 204 206 207 207 205 201 198 199 202 205 204 202 198 194 193 199 206 213 213 211 209 210 209 204 196 190 196 201 205 207 208 210 211 214 217 220 223 227 227 226 225 226 232 236 238 236 235 236 240 244 243 244 246 249 249 247 245 243 246 248 250 249 250 252 255 258 260 262 262 260 257 255 255 256 258 259 259
200 198 196 197 199 202 204 203 203 204 206 207 207 205 201 197 197 199 203 202 199 195 190 191 198 205 212 214 211 209 207 206 202 195 186 185 188 194 199 202 207 212 216 219 222 225 228 229 229 228 227 231 236 241 241 237 237 238 241 242 244 246 249 250 249 246 244 245 246 246 245 247 250 254 259 262 263 263 262 260 258 255 254 256 258 260
204 201 198 197 199 201 203 202 203 204 206 206 206 205 203 199 198 198 199 197 196 194 191 191 195 201 208 212 212 211 209 208 204 196 186 179 176 179 185 190 195 203 212 219 224 228 232 233 232 230 227 229 235 242 246 243 241 241 243 243 244 247 251 252 251 248 246 246 245 243 241 243 247 251 258 262 264 264 264 263 261 258 255 255 257 259
212 207 204 201 201 202 202 202 202 204 206 205 205 204 202 200 199 198 197 195 195 195 195 194 195 199 205 208 209 209 209 209 206 202 194 178 169 166 172 177 183 191 200 211 218 224 231 237 236 232 228 227 229 235 243 245 246 246 245 245 245 247 250 253 252 249 245 245 244 242 241 243 245 247 252 258 262 264 265 264 262 260 257 256 257 258
218 214 210 207 206 205 203 202 203 204 205 205 205 203 200 198 197 196 194 194 195 197 199 198 198 200 204 206 207 207 207 208 207 206 201 183 170 165 168 172 178 184 193 203 210 215 221 231 237 236 230 225 224 225 233 239 243 246 248 246 245 245 248 251 250 249 246 245 244 243 241 242 243 244 246 252 258 263 265 264 263 261 258 258 259 261